GW0996 Weather Reports


time (UTC)temp
C
wind
direction
speed
KPH
gust
KPH
rain 1hr
cm
rain 24hr
cm
rain mn
cm
humidity
%
barometer
mb
20260508160057 20 307 0.0 3.2 0.00 0.00 0.00 63 1012.4
20260508155601 20 308 0.0 6.4 0.00 0.00 0.00 65 1012.3
20260508155048 20 311 0.0 9.7 0.00 0.00 0.00 64 1012.1
20260508154547 20 319 4.8 9.7 0.00 0.00 0.00 61 1012.1
20260508154049 20 305 1.6 6.4 0.00 0.00 0.00 63 1012.3
20260508153051 20 315 0.0 9.7 0.00 0.00 0.00 63 1012.0
20260508152546 20 315 1.6 9.7 0.00 0.00 0.00 62 1012.0
20260508152049 21 308 1.6 4.8 0.00 0.00 0.00 63 1012.2
20260508151544 21 325 0.0 6.4 0.00 0.00 0.00 64 1012.1
20260508151048 21 308 3.2 6.4 0.00 0.00 0.00 62 1012.0
20260508150546 21 312 3.2 6.4 0.00 0.00 0.00 61 1012.2
20260508150047 21 339 0.0 3.2 0.00 0.00 0.00 61 1012.2
20260508145547 21 317 0.0 12.9 0.00 0.00 0.00 63 1012.2
20260508145049 21 307 0.0 12.9 0.00 0.00 0.00 62 1012.2
20260508144547 21 312 0.0 6.4 0.00 0.00 0.00 61 1012.1
20260508144049 21 296 1.6 9.7 0.00 0.00 0.00 60 1012.2
20260508143545 21 22 0.0 9.7 0.00 0.00 0.00 61 1012.2
20260508142544 21 334 0.0 11.3 0.00 0.00 0.00 60 1012.2
20260508142052 21 16 0.0 11.3 0.00 0.00 0.00 59 1012.1
20260508141546 21 321 0.0 9.7 0.00 0.00 0.00 62 1012.1
20260508140544 21 9 0.0 9.7 0.00 0.00 0.00 59 1012.2
20260508135544 21 312 1.6 4.8 0.00 0.00 0.00 60 1012.0
20260508135051 21 310 0.0 9.7 0.00 0.00 0.00 61 1011.9
20260508134547 21 330 4.8 9.7 0.00 0.00 0.00 57 1011.9
20260508134048 22 314 3.2 6.4 0.00 0.00 0.00 54 1012.2
20260508133546 22 314 3.2 4.8 0.00 0.00 0.00 52 1012.0
20260508133049 22 104 0.0 4.8 0.00 0.00 0.00 54 1012.0
20260508132544 22 148 1.6 4.8 0.00 0.00 0.00 55 1012.0
20260508132049 22 314 0.0 4.8 0.00 0.00 0.00 53 1012.0
20260508131545 22 211 0.0 6.4 0.00 0.00 0.00 52 1012.0
20260508131049 22 98 1.6 6.4 0.00 0.00 0.00 54 1012.1
20260508130545 22 123 0.0 4.8 0.00 0.00 0.00 55 1012.1
20260508130049 22 318 1.6 4.8 0.00 0.00 0.00 51 1012.1
20260508125546 22 138 0.0 4.8 0.00 0.00 0.00 53 1012.1
20260508124050 22 180 1.6 6.4 0.00 0.00 0.00 54 1012.0
20260508123548 22 316 1.6 9.7 0.00 0.00 0.00 50 1011.9
20260508123048 22 315 6.4 9.7 0.00 0.00 0.00 50 1012.0
20260508122545 22 315 1.6 4.8 0.00 0.00 0.00 52 1012.1
20260508121546 22 333 0.0 4.8 0.00 0.00 0.00 54 1012.2
20260508121045 22 309 1.6 6.4 0.00 0.00 0.00 53 1012.3
20260508120546 22 319 1.6 6.4 0.00 0.00 0.00 55 1012.2
20260508120047 22 314 3.2 4.8 0.00 0.00 0.00 53 1012.1
20260508115546 22 296 0.0 0.0 0.00 0.00 0.00 56 1012.1
20260508114534 22 295 0.0 1.6 0.00 0.00 0.00 51 1012.1
20260508114006 22 310 0.0 0.0 0.00 0.00 0.00 51 1012.3
20260508113508 22 314 0.0 0.0 0.00 0.00 0.00 53 1012.1
20260508112457 22 313 0.0 0.0 0.00 0.00 0.00 54 1012.0
20260508111958 22 313 0.0 0.0 0.00 0.00 0.00 54 1012.2
20260508111457 22 313 0.0 0.0 0.00 0.00 0.00 52 1012.1
20260508110956 22 313 0.0 4.8 0.00 0.00 0.00 54 1012.1
20260508110458 22 313 0.0 4.8 0.00 0.00 0.00 55 1012.2
20260508105957 22 301 3.2 3.2 0.00 0.00 0.00 56 1012.1
20260508105456 22 296 0.0 3.2 0.00 0.00 0.00 59 1012.2
20260508104958 22 190 0.0 1.6 0.00 0.00 0.00 60 1012.1
20260508104454 21 190 0.0 1.6 0.00 0.00 0.00 56 1012.1
20260508103457 21 180 0.0 0.0 0.00 0.00 0.00 57 1012.2
20260508102944 21 180 0.0 0.0 0.00 0.00 0.00 65 1012.5
20260508102447 20 180 0.0 0.0 0.00 0.00 0.00 65 1012.4
20260508101944 20 180 0.0 0.0 0.00 0.00 0.00 64 1012.3
20260508101445 20 180 0.0 0.0 0.00 0.00 0.00 61 1012.1
20260508100949 20 180 0.0 0.0 0.00 0.00 0.00 63 1012.2
20260508100443 20 180 0.0 0.0 0.00 0.00 0.00 65 1012.2
20260508095445 20 180 0.0 0.0 0.00 0.00 0.00 64 1012.3
20260508094442 19 180 0.0 1.6 0.00 0.00 0.00 62 1012.1
20260508093946 19 151 0.0 1.6 0.00 0.00 0.00 65 1012.1
20260508093443 19 155 1.6 1.6 0.00 0.00 0.00 66 1012.2
20260508092944 19 208 0.0 3.2 0.00 0.00 0.00 68 1012.2
20260508091945 18 133 0.0 1.6 0.00 0.00 0.00 70 1012.0
20260508091442 18 160 0.0 1.6 0.00 0.00 0.00 72 1012.0
20260508085445 18 160 0.0 4.8 0.00 0.00 0.00 70 1011.9
20260508084444 18 137 1.6 6.4 0.00 0.00 0.00 70 1011.8
20260508083947 18 129 0.0 6.4 0.00 0.00 0.00 70 1011.8
20260508083443 18 121 3.2 4.8 0.00 0.00 0.00 70 1011.8
20260508082948 18 129 0.0 3.2 0.00 0.00 0.00 69 1011.6
20260508082446 18 173 0.0 3.2 0.00 0.00 0.00 71 1011.9
20260508081946 18 140 0.0 0.0 0.00 0.00 0.00 66 1011.6
20260508080949 18 132 0.0 4.8 0.00 0.00 0.00 66 1011.7
20260508075410 18 311 0.0 1.6 0.00 0.00 0.00 67 1011.5
20260508074857 17 311 0.0 0.0 0.00 0.00 0.00 68 1011.5
20260508074358 17 312 0.0 0.0 0.00 0.00 0.00 68 1011.5
20260508073357 17 344 0.0 0.0 0.00 0.00 0.00 72 1011.8
20260508072858 16 344 0.0 0.0 0.00 0.00 0.00 77 1011.4
20260508071357 16 344 0.0 1.6 0.00 0.00 0.00 76 1011.4
20260508070857 15 344 0.0 1.6 0.00 0.00 0.00 79 1011.7
20260508070356 14 337 0.0 0.0 0.00 0.00 0.00 79 1011.7
20260508065859 14 338 0.0 0.0 0.00 0.00 0.00 80 1011.6
20260508065356 13 338 0.0 0.0 0.00 0.00 0.00 85 1011.6
20260508064858 13 338 0.0 0.0 0.00 0.00 0.00 85 1011.5
20260508064357 12 338 0.0 1.6 0.00 0.00 0.00 86 1011.7
20260508063855 12 338 0.0 1.6 0.00 0.00 0.00 87 1011.7
20260508063356 12 337 0.0 3.2 0.00 0.00 0.00 85 1011.8
20260508062858 12 337 0.0 3.2 0.00 0.00 0.00 86 1011.8
20260508062358 11 337 1.6 1.6 0.00 0.00 0.00 87 1011.8
20260508061854 11 338 0.0 0.0 0.00 0.00 0.00 88 1011.8
20260508061356 11 338 0.0 0.0 0.00 0.00 0.00 88 1011.7
20260508060855 11 337 0.0 0.0 0.00 0.00 0.00 88 1011.7
20260508055857 11 338 0.0 0.0 0.00 0.00 0.00 89 1011.7
20260508055356 10 337 0.0 1.6 0.00 0.00 0.00 89 1011.8
20260508054856 10 337 0.0 1.6 0.00 0.00 0.00 89 1011.7
20260508054358 10 337 0.0 0.0 0.00 0.00 0.00 90 1011.7
20260508053856 10 337 0.0 3.2 0.00 0.00 0.00 92 1011.6
20260508053357 9 338 0.0 3.2 0.00 0.00 0.00 93 1011.6
20260508052859 9 339 0.0 0.0 0.00 0.00 0.00 93 1011.4
20260508052356 9 339 0.0 0.0 0.00 0.00 0.00 93 1011.6
20260508051855 8 339 0.0 1.6 0.00 0.00 0.00 94 1011.6
20260508050854 8 340 0.0 1.6 0.00 0.00 0.00 94 1011.7
20260508050357 8 340 0.0 0.0 0.00 0.00 0.00 94 1011.5
20260508045856 8 339 0.0 0.0 0.00 0.00 0.00 94 1011.3
20260508045354 8 340 0.0 0.0 0.00 0.00 0.00 94 1011.6
20260508044857 8 339 0.0 0.0 0.00 0.00 0.00 94 1011.4
20260508044358 8 340 0.0 0.0 0.00 0.00 0.00 94 1011.3
20260508043856 8 340 0.0 0.0 0.00 0.00 0.00 94 1011.4
20260508043355 8 340 0.0 0.0 0.00 0.00 0.00 94 1011.4
20260508042355 8 343 0.0 0.0 0.00 0.00 0.00 94 1011.1
20260508041855 8 343 0.0 0.0 0.00 0.00 0.00 94 1011.1
20260508041344 8 343 0.0 3.2 0.00 0.00 0.00 94 1011.2
20260508040842 8 343 0.0 3.2 0.00 0.00 0.00 94 1011.0
20260508040349 8 11 1.6 3.2 0.00 0.00 0.00 94 1011.2
20260508035844 8 17 1.6 3.2 0.00 0.00 0.00 94 1011.0
20260508034847 8 38 0.0 0.0 0.00 0.00 0.00 94 1011.1
20260508034345 8 38 0.0 0.0 0.00 0.00 0.00 94 1011.0
20260508033844 8 39 0.0 0.0 0.00 0.00 0.00 94 1011.0
20260508032843 8 39 0.0 0.0 0.00 0.00 0.00 94 1011.1
20260508032344 8 37 0.0 0.0 0.00 0.00 0.00 94 1011.0
20260508030845 8 37 0.0 0.0 0.00 0.00 0.00 94 1010.9
20260508030347 8 38 0.0 0.0 0.00 0.00 0.00 93 1011.0
20260508025831 7 38 0.0 0.0 0.00 0.00 0.00 93 1011.1
20260508025332 8 38 0.0 0.0 0.00 0.00 0.00 93 1011.1
20260508024832 8 39 0.0 0.0 0.00 0.00 0.00 93 1011.1
20260508024324 8 39 0.0 0.0 0.00 0.00 0.00 93 1011.2
20260508023820 8 38 0.0 0.0 0.00 0.00 0.00 93 1011.2
20260508023319 8 38 0.0 0.0 0.00 0.00 0.00 93 1011.3
20260508022309 8 38 0.0 0.0 0.00 0.00 0.00 93 1011.3
20260508021757 8 38 0.0 1.6 0.00 0.00 0.00 93 1011.4
20260508021257 8 40 0.0 1.6 0.00 0.00 0.00 94 1011.1
20260508020759 8 40 0.0 0.0 0.00 0.00 0.00 94 1011.4
20260508020257 8 40 0.0 1.6 0.00 0.00 0.00 93 1011.4
20260508015756 8 40 0.0 1.6 0.00 0.00 0.00 94 1011.2
20260508015258 8 42 0.0 0.0 0.00 0.00 0.00 94 1011.6
20260508014756 8 69 0.0 0.0 0.00 0.00 0.00 94 1011.7
20260508014255 8 72 0.0 0.0 0.00 0.00 0.00 93 1011.5
20260508013744 8 69 0.0 0.0 0.00 0.00 0.00 94 1011.5
20260508013246 8 81 0.0 0.0 0.00 0.00 0.00 93 1011.8
20260508012745 8 81 0.0 1.6 0.00 0.00 0.00 93 1011.7
20260508012243 8 81 0.0 1.6 0.00 0.00 0.00 93 1011.8
20260508011745 8 28 0.0 1.6 0.00 0.00 0.00 93 1011.6
20260508011245 8 41 0.0 0.0 0.00 0.00 0.00 93 1011.5
20260508010722 8 41 0.0 0.0 0.00 0.00 0.00 93 1011.8
20260508010220 8 41 0.0 0.0 0.00 0.00 0.00 93 1011.7
20260508005720 8 41 0.0 0.0 0.00 0.00 0.00 93 1011.8
20260508005207 8 41 0.0 0.0 0.00 0.00 0.00 93 1011.9
20260508004709 8 41 0.0 0.0 0.00 0.00 0.00 93 1012.0
20260508004208 8 41 0.0 0.0 0.00 0.00 0.00 93 1012.0
20260508003657 8 41 0.0 0.0 0.00 0.00 0.00 92 1012.1
20260508003158 8 41 0.0 0.0 0.00 0.00 0.00 92 1012.1
20260508002656 8 41 0.0 0.0 0.00 0.00 0.00 92 1012.2
20260508001657 8 41 0.0 1.6 0.00 0.00 0.00 92 1012.4
20260508001155 8 40 0.0 1.6 0.00 0.00 0.00 92 1012.3
20260508000656 8 50 0.0 1.6 0.00 0.00 0.00 92 1012.3
20260507235148 9 49 0.0 1.6 0.00 0.00 0.00 92 1012.4
20260507234642 8 91 0.0 1.6 0.00 0.00 0.00 91 1012.5
20260507234144 9 90 0.0 1.6 0.00 0.00 0.00 91 1012.7
20260507233144 9 8 1.6 1.6 0.00 0.00 0.00 91 1012.6
20260507232644 9 9 0.0 0.0 0.00 0.00 0.00 90 1012.8
20260507232147 9 9 0.0 0.0 0.00 0.00 0.00 90 1012.9
20260507231645 9 8 0.0 0.0 0.00 0.00 0.00 90 1013.0
20260507231143 9 10 0.0 3.2 0.00 0.00 0.00 90 1012.9
20260507230646 10 9 0.0 3.2 0.00 0.00 0.00 91 1012.8
20260507230146 10 20 0.0 0.0 0.00 0.00 0.00 90 1013.0
20260507225644 10 20 0.0 0.0 0.00 0.00 0.00 90 1013.0
20260507224644 10 20 0.0 0.0 0.00 0.00 0.00 90 1013.0
20260507224145 10 20 0.0 0.0 0.00 0.00 0.00 90 1012.9
20260507223648 10 20 0.0 0.0 0.00 0.00 0.00 89 1012.9
20260507223143 10 20 0.0 0.0 0.00 0.00 0.00 89 1012.7
20260507222146 10 17 0.0 1.6 0.00 0.00 0.00 89 1012.7
20260507221643 10 18 0.0 1.6 0.00 0.00 0.00 89 1012.8
20260507221142 10 8 0.0 1.6 0.00 0.00 0.00 89 1012.4
20260507220646 10 9 0.0 1.6 0.00 0.00 0.00 88 1012.8
20260507220143 10 3 0.0 3.2 0.00 0.00 0.00 87 1012.6
20260507215643 10 2 0.0 3.2 0.00 0.00 0.00 88 1012.7
20260507215146 10 25 0.0 0.0 0.00 0.00 0.00 87 1012.7
20260507214643 10 25 0.0 0.0 0.00 0.00 0.00 87 1012.2
20260507214142 10 24 0.0 0.0 0.00 0.00 0.00 87 1012.5
20260507213646 10 25 0.0 1.6 0.00 0.00 0.00 87 1012.6
20260507213121 10 14 0.0 1.6 0.00 0.00 0.00 87 1012.3
20260507212618 11 12 0.0 0.0 0.00 0.00 0.00 86 1012.4
20260507212119 11 10 0.0 0.0 0.00 0.00 0.00 86 1012.4
20260507211607 11 10 0.0 0.0 0.00 0.00 0.00 85 1012.5
20260507211107 11 6 0.0 1.6 0.00 0.00 0.00 83 1012.4
20260507210555 11 5 0.0 1.6 0.00 0.00 0.00 85 1012.6
20260507210057 11 11 0.0 0.0 0.00 0.00 0.00 84 1012.7
20260507205557 11 5 0.0 0.0 0.00 0.00 0.00 84 1012.6
20260507205054 11 7 0.0 0.0 0.00 0.00 0.00 83 1012.8
20260507204556 12 6 0.0 0.0 0.00 0.00 0.00 83 1012.4
20260507204059 12 7 0.0 0.0 0.00 0.00 0.00 81 1012.4
20260507203556 12 7 0.0 0.0 0.00 0.00 0.00 81 1012.2
20260507203056 12 7 0.0 0.0 0.00 0.00 0.00 80 1012.5
20260507202558 12 7 0.0 0.0 0.00 0.00 0.00 80 1012.3
20260507202058 12 7 0.0 1.6 0.00 0.00 0.00 79 1012.4
20260507201556 13 7 0.0 1.6 0.00 0.00 0.00 78 1012.5
20260507201059 13 339 0.0 0.0 0.00 0.00 0.00 77 1012.4
20260507200557 13 339 0.0 3.2 0.00 0.00 0.00 75 1012.3
20260507200056 13 332 0.0 3.2 0.00 0.00 0.00 75 1012.6
20260507195558 13 342 0.0 1.6 0.00 0.00 0.00 76 1012.9
20260507195054 13 339 0.0 1.6 0.00 0.00 0.00 77 1012.5
20260507194554 13 334 0.0 1.6 0.00 0.00 0.00 77 1012.5
20260507194056 13 347 0.0 1.6 0.00 0.00 0.00 77 1012.5
20260507193555 13 54 0.0 1.6 0.00 0.00 0.00 76 1012.5
20260507193055 13 32 0.0 0.0 0.00 0.00 0.00 77 1012.6
20260507192543 14 38 0.0 1.6 0.00 0.00 0.00 76 1012.4
20260507192044 14 37 0.0 0.0 0.00 0.00 0.00 76 1012.6
20260507190542 15 314 0.0 3.2 0.00 0.00 0.00 75 1012.6
20260507190046 15 339 1.6 3.2 0.00 0.00 0.00 75 1012.3
20260507185544 15 347 0.0 3.2 0.00 0.00 0.00 74 1012.3
20260507185045 15 356 0.0 1.6 0.00 0.00 0.00 74 1012.2
20260507184546 16 324 0.0 1.6 0.00 0.00 0.00 72 1012.2
20260507184045 16 330 0.0 1.6 0.00 0.00 0.00 70 1012.2
20260507183045 17 320 0.0 3.2 0.00 0.00 0.00 67 1011.9
20260507182543 17 307 0.0 3.2 0.00 0.00 0.00 64 1012.1
20260507182043 18 313 0.0 4.8 0.00 0.00 0.00 63 1011.9
20260507181547 18 315 3.2 4.8 0.00 0.00 0.00 59 1012.0
20260507181044 18 314 0.0 3.2 0.00 0.00 0.00 60 1011.8
20260507180046 18 314 1.6 4.8 0.00 0.00 0.00 57 1011.9
20260507175543 19 314 1.6 4.8 0.00 0.00 0.00 59 1011.7
20260507175043 19 314 1.6 4.8 0.00 0.00 0.00 59 1011.6
20260507174545 19 316 1.6 4.8 0.00 0.00 0.00 58 1011.6
20260507174043 19 312 1.6 3.2 0.00 0.00 0.00 57 1011.5
20260507173543 20 312 1.6 3.2 0.00 0.00 0.00 57 1011.4
20260507173044 20 311 0.0 3.2 0.00 0.00 0.00 54 1011.4
20260507172543 20 311 0.0 3.2 0.00 0.00 0.00 52 1011.2
20260507171545 20 311 1.6 4.8 0.00 0.00 0.00 52 1011.3
20260507171043 20 311 1.6 4.8 0.00 0.00 0.00 52 1011.2
20260507170546 20 310 1.6 4.8 0.00 0.00 0.00 51 1011.3
20260507170045 20 311 0.0 3.2 0.00 0.00 0.00 52 1011.1
20260507165542 20 311 1.6 3.2 0.00 0.00 0.00 49 1011.4
20260507165043 20 311 3.2 9.7 0.00 0.00 0.00 48 1011.4
20260507164545 20 315 1.6 9.7 0.00 0.00 0.00 48 1011.3
20260507164044 21 295 1.6 4.8 0.00 0.00 0.00 48 1011.5
20260507163045 20 307 0.0 3.2 0.00 0.00 0.00 51 1011.4
20260507162544 20 313 0.0 4.8 0.00 0.00 0.00 49 1011.4
20260507162043 20 313 1.6 4.8 0.00 0.00 0.00 52 1011.3
20260507161548 20 316 1.6 3.2 0.00 0.00 0.00 52 1011.5
20260507160534 20 316 0.0 3.2 0.00 0.00 0.00 51 1011.5